Total_Precipitation_Accumulation
0.01 0.15 0.15 0.21 0.19 0.19 0.36 0.22 0.15 0.15 0.09 0.03 -0.02 -0.14 -0.14 -0.23 -0.19 -0.20 -0.20 -0.25 -0.23 -0.10 -0.10 -0.05 -0.02 -0.07 -0.07 -0.13 -0.18 -0.18 -0.20 -0.19 -0.15 -0.18 -0.18 -0.26 -0.33 -0.37 -0.37 -0.38 -0.41 -0.47 -0.47 -0.51 -0.55 -0.55 -0.64 -0.76 -0.76 -0.76 -0.69 -0.67 -0.67 -0.71 -0.71 -0.68 -0.68 -0.67 -0.67 -0.62 -0.62 -0.54 -0.54 -0.49 -0.47 -0.47 -0.44 -0.34 -0.25
0.01 0.05 0.05 0.25 0.58 0.58 0.30 0.17 0.17 0.17 0.09 0.04 -0.02 -0.13 -0.13 -0.20 -0.18 -0.19 -0.19 -0.21 -0.21 -0.17 -0.17 -0.09 -0.06 -0.09 -0.09 -0.11 -0.17 -0.17 -0.18 -0.16 -0.14 -0.17 -0.17 -0.21 -0.26 -0.33 -0.33 -0.38 -0.40 -0.46 -0.46 -0.51 -0.59 -0.59 -0.67 -0.74 -0.66 -0.66 -0.66 -0.64 -0.62 -0.65 -0.65 -0.68 -0.70 -0.73 -0.73 -0.71 -0.69 -0.61 -0.61 -0.57 -0.51 -0.51 -0.45 -0.38 -0.26
0.10 0.08 0.08 0.72 0.48 0.48 0.25 0.15 0.13 0.13 0.03 -0.04 -0.11 -0.16 -0.16 -0.23 -0.36 -0.40 -0.40 -0.43 -0.42 -0.39 -0.39 -0.28 -0.25 -0.23 -0.23 -0.21 -0.21 -0.21 -0.20 -0.18 -0.18 -0.20 -0.20 -0.26 -0.29 -0.35 -0.35 -0.41 -0.45 -0.49 -0.49 -0.52 -0.57 -0.57 -0.63 -0.67 -0.60 -0.60 -0.59 -0.57 -0.54 -0.56 -0.56 -0.65 -0.67 -0.71 -0.71 -0.71 -0.57 -0.55 -0.55 -0.52 -0.46 -0.46 -0.40 -0.34 -0.25
0.21 0.31 0.31 0.49 0.36 0.36 0.18 0.12 0.09 0.09 -0.07 -0.16 -0.19 -0.22 -0.22 -0.23 -0.42 -0.50 -0.50 -0.59 -0.66 -0.66 -0.66 -0.62 -0.58 -0.48 -0.48 -0.40 -0.49 -0.49 -0.31 -0.29 -0.29 -0.29 -0.29 -0.32 -0.42 -0.48 -0.48 -0.52 -0.55 -0.59 -0.59 -0.65 -0.66 -0.66 -0.64 -0.67 -0.66 -0.66 -0.64 -0.61 -0.56 -0.58 -0.58 -0.60 -0.56 -0.58 -0.58 -0.35 -0.34 -0.35 -0.35 -0.32 -0.29 -0.29 -0.26 -0.23 -0.11
0.15 0.26 0.26 0.23 0.17 0.17 0.15 0.08 0.06 0.06 -0.05 -0.12 -0.17 -0.21 -0.21 -0.25 -0.37 -0.48 -0.48 -0.60 -0.69 -0.74 -0.74 -0.83 -0.81 -0.74 -0.74 -0.72 -0.68 -0.68 -0.52 -0.47 -0.44 -0.43 -0.43 -0.43 -0.45 -0.47 -0.47 -0.50 -0.55 -0.61 -0.61 -0.67 -0.70 -0.70 -0.70 -0.48 -0.48 -0.48 -0.47 -0.45 -0.44 -0.44 -0.44 -0.43 -0.37 -0.36 -0.36 -0.17 -0.16 -0.16 -0.16 -0.17 -0.16 -0.16 -0.14 -0.14 -0.07
0.11 0.13 0.13 0.11 0.09 0.09 0.08 0.09 0.04 0.04 0.02 -0.07 -0.13 -0.15 -0.15 -0.17 -0.27 -0.35 -0.35 -0.47 -0.54 -0.53 -0.53 -0.61 -0.66 -0.46 -0.46 -0.56 -0.61 -0.61 -0.54 -0.47 -0.42 -0.37 -0.37 -0.34 -0.29 -0.28 -0.28 -0.29 -0.33 -0.39 -0.39 -0.44 -0.51 -0.51 -0.21 -0.22 -0.25 -0.25 -0.28 -0.29 -0.28 -0.28 -0.28 -0.25 -0.23 -0.19 -0.19 -0.12 -0.11 -0.09 -0.09 -0.10 -0.08 -0.08 -0.07 -0.08 -0.03
0.09 0.07 0.07 0.03 0.01 0.01 0.01 0.04 0.06 0.06 0.03 -0.02 -0.05 -0.07 -0.07 -0.07 -0.14 -0.17 -0.17 -0.18 -0.18 -0.21 -0.21 -0.32 -0.23 -0.29 -0.29 -0.37 -0.43 -0.43 -0.43 -0.35 -0.31 -0.25 -0.25 -0.19 -0.16 -0.13 -0.13 -0.13 -0.14 -0.15 -0.15 -0.16 -0.19 -0.19 -0.06 -0.07 -0.11 -0.11 -0.13 -0.17 -0.19 -0.17 -0.17 -0.17 -0.18 -0.12 -0.12 -0.11 -0.08 -0.08 -0.08 -0.08 -0.06 -0.06 -0.04 -0.04 -0.02
0.09 0.09 0.09 0.06 0.02 0.02 0.01 0.01 0.04 0.04 -0.00 -0.04 -0.03 -0.01 -0.01 -0.03 0.01 -0.03 -0.03 -0.04 -0.06 -0.04 -0.04 -0.08 -0.19 -0.19 -0.19 -0.24 -0.32 -0.32 -0.36 -0.35 -0.31 -0.26 -0.26 -0.20 -0.15 -0.09 -0.09 -0.09 -0.08 -0.07 -0.07 -0.06 -0.06 -0.06 -0.07 -0.07 -0.07 -0.07 -0.07 -0.07 -0.09 -0.09 -0.09 -0.10 -0.11 -0.09 -0.09 -0.10 -0.09 -0.08 -0.08 -0.07 -0.05 -0.05 -0.05 -0.03 -0.03
0.08 0.11 0.11 0.07 0.02 0.02 -0.03 -0.03 -0.01 -0.01 0.04 0.03 0.03 0.01 0.01 -0.00 0.02 0.05 0.05 0.03 -0.02 -0.02 -0.02 -0.03 -0.09 -0.11 -0.11 -0.15 -0.19 -0.19 -0.24 -0.30 -0.34 -0.32 -0.32 -0.28 -0.25 -0.18 -0.18 -0.15 -0.13 -0.11 -0.11 -0.09 -0.13 -0.13 -0.09 -0.08 -0.07 -0.07 -0.06 -0.05 -0.05 -0.05 -0.05 -0.05 -0.06 -0.03 -0.03 -0.03 -0.05 -0.07 -0.07 -0.07 -0.07 -0.07 -0.06 -0.03 -0.05
0.08 0.08 0.08 0.15 0.10 0.10 0.05 0.00 0.03 0.03 0.16 0.12 0.08 0.07 0.07 0.04 0.04 0.02 0.02 0.02 0.03 0.02 0.02 0.01 -0.03 -0.06 -0.06 -0.09 -0.11 -0.11 -0.15 -0.24 -0.28 -0.29 -0.29 -0.29 -0.28 -0.27 -0.27 -0.23 -0.21 -0.19 -0.19 -0.15 -0.16 -0.16 -0.12 -0.10 -0.09 -0.09 -0.06 -0.04 -0.04 -0.03 -0.03 -0.03 -0.01 -0.00 -0.00 0.01 0.01 0.01 0.01 0.00 -0.01 -0.01 -0.03 0.04 0.02
0.09 0.10 0.10 0.09 0.11 0.11 0.08 0.06 0.06 0.06 0.20 0.23 0.19 0.17 0.17 0.15 0.11 0.09 0.09 0.06 0.06 0.08 0.08 0.07 -0.01 -0.02 -0.02 -0.04 -0.06 -0.06 -0.08 -0.13 -0.22 -0.25 -0.25 -0.27 -0.27 -0.27 -0.27 -0.25 -0.23 -0.21 -0.21 -0.18 -0.15 -0.15 -0.12 -0.09 -0.08 -0.08 -0.07 -0.06 -0.04 -0.03 -0.03 -0.01 -0.02 -0.01 -0.01 0.00 0.02 0.03 0.03 0.04 0.05 0.05 0.05 0.04 0.04
0.07 0.08 0.08 0.08 0.06 0.06 0.05 0.03 0.04 0.04 0.13 0.21 0.23 0.20 0.20 0.18 0.17 0.11 0.11 0.10 0.09 0.09 0.09 0.08 0.03 0.01 0.01 -0.01 -0.02 -0.02 -0.04 -0.06 -0.14 -0.18 -0.18 -0.20 -0.22 -0.23 -0.23 -0.23 -0.21 -0.20 -0.20 -0.13 -0.11 -0.11 -0.10 -0.09 -0.08 -0.08 -0.08 -0.06 -0.05 -0.04 -0.04 -0.03 -0.03 -0.03 -0.03 -0.02 -0.01 -0.01 -0.01 0.02 0.03 0.03 0.04 0.02 0.02
0.08 0.08 0.08 0.11 0.11 0.11 0.10 0.09 0.09 0.09 0.11 0.16 0.19 0.21 0.21 0.19 0.17 0.13 0.13 0.10 0.07 0.05 0.05 0.04 0.02 0.02 0.02 0.01 0.00 0.00 -0.00 -0.01 -0.04 -0.05 -0.05 -0.07 -0.08 -0.11 -0.11 -0.13 -0.15 -0.06 -0.06 -0.06 -0.05 -0.05 -0.05 -0.06 -0.05 -0.05 -0.06 -0.05 -0.04 -0.04 -0.04 -0.02 -0.02 -0.03 -0.03 -0.03 -0.03 -0.03 -0.03 -0.02 0.00 0.00 -0.01 -0.01 -0.00
0.10 0.13 0.13 0.13 0.14 0.14 0.14 0.12 0.10 0.10 0.10 0.13 0.18 0.19 0.19 0.19 0.17 0.10 0.10 0.07 0.06 0.05 0.05 0.04 0.03 0.01 0.01 0.01 0.01 0.01 0.01 0.00 0.00 0.01 0.01 0.01 0.01 -0.00 -0.00 -0.02 -0.05 -0.00 -0.00 -0.01 -0.01 -0.01 -0.02 -0.02 -0.02 -0.02 -0.02 -0.02 -0.02 -0.02 -0.02 -0.01 -0.01 -0.02 -0.02 -0.02 -0.02 -0.03 -0.03 -0.02 -0.02 -0.02 -0.01 -0.00 0.00
0.10 0.10 0.10 0.11 0.10 0.10 0.09 0.08 0.07 0.07 0.08 0.10 0.15 0.17 0.17 0.20 0.18 0.08 0.08 0.07 0.05 0.04 0.04 0.03 0.02 0.01 0.01 0.00 0.01 0.01 0.00 0.00 0.00 0.00 0.00 0.01 0.02 0.01 0.01 0.00 0.00 0.00 0.00 0.00 0.00 0.00 -0.01 -0.01 -0.01 -0.01 -0.01 -0.01 -0.01 -0.01 -0.01 -0.01 -0.01 -0.01 -0.01 -0.01 -0.01 -0.01 -0.01 -0.01 -0.01 -0.01 -0.00 0.00 0.00
0.08 0.10 0.10 0.09 0.08 0.08 0.07 0.05 0.06 0.06 0.08 0.11 0.10 0.13 0.13 0.14 0.16 0.07 0.07 0.04 0.03 0.02 0.02 0.02 0.02 0.01 0.01 0.00 0.00 0.00 0.00 0.00 0.00 0.00 0.00 0.00 0.00 0.00 0.00 0.00 0.00 0.00 0.00 0.00 0.00 0.00 0.00 -0.00 -0.00 -0.00 -0.01 -0.02 -0.01 -0.01 -0.01 -0.01 -0.02 -0.02 -0.02 -0.02 -0.01 -0.01 -0.01 -0.01 -0.01 -0.01 0.00 0.00 -0.00
0.07 0.11 0.11 0.09 0.08 0.08 0.07 0.05 0.05 0.05 0.08 0.08 0.06 0.07 0.07 0.07 0.09 0.08 0.08 0.05 0.02 0.01 0.01 0.01 0.01 0.00 0.00 0.01 0.00 0.00 0.00 0.00 -0.00 0.00 0.00 0.00 0.00 0.00 0.00 0.00 0.00 0.00 0.00 0.00 0.00 0.00 0.00 0.00 0.00 0.00 0.00 0.00 -0.01 0.00 0.00 -0.00 -0.00 -0.01 -0.01 -0.01 -0.00 0.00 0.00 0.00 -0.01 -0.01 -0.01 -0.01 -0.01
0.08 0.09 0.09 0.07 0.06 0.06 0.05 0.04 0.03 0.03 0.02 0.02 0.02 0.02 0.02 0.02 0.01 0.03 0.03 0.03 0.02 0.01 0.01 0.00 0.00 0.00 0.00 0.00 0.00 0.00 0.00 0.00 0.00 0.00 0.00 0.00 0.00 0.00 0.00 0.00 0.00 0.00 0.00 0.00 0.00 0.00 0.00 0.00 0.00 0.00 0.00 0.00 0.00 0.00 0.00 0.00 0.00 0.00 0.00 -0.00 -0.00 -0.00 -0.00 -0.01 -0.01 -0.01 -0.01 -0.02 -0.02
0.06 0.06 0.06 0.05 0.03 0.03 0.02 0.02 0.02 0.02 0.01 0.01 0.01 0.01 0.01 0.01 0.01 0.01 0.01 0.01 0.01 0.01 0.01 0.01 0.00 0.00 0.00 0.00 0.00 0.00 0.00 0.00 0.00 0.00 0.00 0.00 0.00 0.00 0.00 0.00 0.00 0.00 0.00 0.00 0.00 0.00 0.00 0.00 0.00 0.00 0.00 0.00 0.00 0.00 0.00 0.00 0.00 0.00 0.00 0.00 -0.00 -0.00 -0.00 0.00 -0.00 -0.00 -0.00 -0.00 -0.01
0.03 0.03 0.03 0.04 0.02 0.02 0.01 0.00 -0.00 -0.00 0.00 0.00 0.00 0.00 0.00 0.00 0.00 0.00 0.00 0.00 0.00 0.01 0.01 0.00 0.00 0.00 0.00 0.00 0.00 0.00 0.00 0.00 0.00 0.00 0.00 0.00 0.00 0.00 0.00 0.00 0.00 0.00 0.00 0.00 0.00 0.00 0.00 0.00 0.00 0.00 0.00 0.00 0.00 0.00 0.00 0.00 0.00 0.00 0.00 0.00 0.00 0.00 0.00 0.00 0.00 0.00 -0.00 -0.00 -0.00
0.01 0.01 0.01 0.01 0.01 0.01 0.00 -0.00 -0.00 -0.00 0.00 0.00 0.00 0.00 0.00 0.00 0.00 0.00 0.00 0.00 0.00 0.00 0.00 0.00 0.00 0.00 0.00 0.00 0.00 0.00 0.00 0.00 0.00 0.00 0.00 0.00 0.00 0.00 0.00 0.00 0.00 0.00 0.00 0.00 0.00 0.00 0.00 0.00 0.00 0.00 0.00 0.00 0.00 0.00 0.00 0.00 0.00 0.00 0.00 0.00 0.00 0.00 0.00 0.00 0.00 0.00 0.00 0.00 0.00
0.01 0.00 0.00 0.00 0.00 0.00 0.00 0.00 0.00 0.00 0.00 0.00 0.00 0.00 0.00 0.00 0.00 0.00 0.00 0.00 0.00 0.00 0.00 0.00 0.00 0.00 0.00 0.00 0.00 0.00 0.00 0.00 0.00 0.00 0.00 0.00 0.00 0.00 0.00 0.00 0.00 0.00 0.00 0.00 0.00 0.00 0.00 0.00 0.00 0.00 0.00 0.00 0.00 0.00 0.00 0.00 0.00 0.00 0.00 0.00 0.00 0.00 0.00 0.00 0.00 0.00 0.00 0.00 0.00
0.00 0.00 0.00 0.00 0.00 0.00 0.00 0.00 0.00 0.00 0.00 0.00 0.00 0.00 0.00 0.00 0.00 0.00 0.00 0.00 0.00 0.00 0.00 0.00 0.00 0.00 0.00 0.00 0.00 0.00 0.00 0.00 0.00 0.00 0.00 0.00 0.00 0.00 0.00 0.00 0.00 0.00 0.00 0.00 0.00 0.00 0.00 0.00 0.00 0.00 0.00 0.00 0.00 0.00 0.00 0.00 0.00 0.00 0.00 0.00 0.00 0.00 0.00 0.00 0.00 0.00 0.00 0.00 0.00
0.00 0.00 0.00 0.00 0.00 0.00 0.00 0.00 0.00 0.00 0.00 0.00 0.00 0.00 0.00 0.00 0.00 0.00 0.00 0.00 0.00 0.00 0.00 0.00 0.00 0.00 0.00 0.00 0.00 0.00 0.00 0.00 0.00 0.00 0.00 0.00 0.00 0.00 0.00 0.00 0.00 0.00 0.00 0.00 0.00 0.00 0.00 0.00 0.00 0.00 0.00 0.00 0.00 0.00 0.00 0.00 0.00 0.00 0.00 0.00 0.00 0.00 0.00 0.00 0.00 0.00 0.00 0.00 0.00
0.00 0.00 0.00 0.00 0.00 0.00 0.00 0.00 0.00 0.00 0.00 0.00 0.00 0.00 0.00 0.00 0.00 0.00 0.00 0.00 0.00 0.00 0.00 0.00 0.00 0.00 0.00 0.00 0.00 0.00 0.00 0.00 0.00 0.00 0.00 0.00 0.00 0.00 0.00 0.00 0.00 0.00 0.00 0.00 0.00 0.00 0.00 0.00 0.00 0.00 0.00 0.00 0.00 0.00 0.00 0.00 0.00 0.00 0.00 0.00 0.00 0.00 0.00 0.00 0.00 0.00 0.00 0.00 0.00
0.00 0.00 0.00 0.00 0.00 0.00 0.00 0.00 0.00 0.00 0.00 0.00 0.00 0.00 0.00 0.00 0.00 0.00 0.00 0.00 0.00 0.00 0.00 0.00 0.00 0.00 0.00 0.00 0.00 0.00 0.00 0.00 0.00 0.00 0.00 0.00 0.00 0.00 0.00 0.00 0.00 0.00 0.00 0.00 0.00 0.00 0.00 0.00 0.00 0.00 0.00 0.00 0.00 0.00 0.00 0.00 0.00 0.00 0.00 0.00 0.00 0.00 0.00 0.00 0.00 0.00 0.00 0.00 0.00
0.00 0.00 0.00 0.00 0.00 0.00 0.00 0.00 0.00 0.00 0.00 0.00 0.00 0.00 0.00 0.00 0.00 0.00 0.00 0.00 0.00 0.00 0.00 0.00 0.00 0.00 0.00 0.00 0.00 0.00 0.00 0.00 0.00 0.00 0.00 0.00 0.00 0.00 0.00 0.00 0.00 0.00 0.00 0.00 0.00 0.00 0.00 0.00 0.00 0.00 0.00 0.00 0.00 0.00 0.00 0.00 0.00 0.00 0.00 0.00 0.00 0.00 0.00 0.00 0.00 0.00 0.00 0.00 0.00
0.00 0.00 0.00 0.00 0.00 0.00 0.00 0.00 0.00 0.00 0.00 0.00 0.00 0.00 0.00 0.00 0.00 0.00 0.00 0.00 0.00 0.00 0.00 0.00 0.00 0.00 0.00 0.00 0.00 0.00 0.00 0.00 0.00 0.00 0.00 0.00 0.00 0.00 0.00 0.00 0.00 0.00 0.00 0.00 0.00 0.00 0.00 0.00 0.00 0.00 0.00 0.00 0.00 0.00 0.00 0.00 0.00 0.00 0.00 0.00 0.00 0.00 0.00 0.00 0.00 0.00 0.00 0.00 0.00
0.00 0.00 0.00 0.00 0.00 0.00 0.00 0.00 0.00 0.00 0.00 0.00 0.00 0.00 0.00 0.00 0.00 0.00 0.00 0.00 0.00 0.00 0.00 0.00 0.00 0.00 0.00 0.00 0.00 0.00 0.00 0.00 0.00 0.00 0.00 0.00 0.00 0.00 0.00 0.00 0.00 0.00 0.00 0.00 0.00 0.00 0.00 0.00 0.00 0.00 0.00 0.00 0.00 0.00 0.00 0.00 0.00 0.00 0.00 0.00 0.00 0.00 0.00 0.00 0.00 0.00 0.00 0.00 0.00
0.00 0.00 0.00 0.00 0.00 0.00 0.00 0.00 0.00 0.00 0.00 0.00 0.00 0.00 0.00 0.00 0.00 0.00 0.00 0.00 0.00 0.00 0.00 0.00 0.00 0.00 0.00 0.00 0.00 0.00 0.00 0.00 0.00 0.00 0.00 0.00 0.00 0.00 0.00 0.00 0.00 0.00 0.00 0.00 0.00 0.00 0.00 0.00 0.00 0.00 0.00 0.00 0.00 0.00 0.00 0.00 0.00 0.00 0.00 0.00 0.00 0.00 0.00 -0.00 -0.00 -0.00 0.00 0.00 -0.00
0.00 0.00 0.00 0.00 0.00 0.00 0.00 0.00 0.00 0.00 0.00 0.00 0.00 0.00 0.00 0.00 0.00 0.00 0.00 0.00 0.00 0.00 0.00 0.00 0.00 0.00 0.00 0.00 0.00 0.00 0.00 0.00 0.00 0.00 0.00 0.00 0.00 0.00 0.00 0.00 0.00 0.00 0.00 0.00 0.00 0.00 0.00 0.00 0.00 0.00 0.00 0.00 0.00 0.00 0.00 -0.00 0.00 0.00 0.00 0.00 0.00 0.00 0.00 0.00 0.00 0.00 0.00 0.00 0.00
0.00 0.00 0.00 0.00 0.00 0.00 0.00 0.00 0.00 0.00 0.00 0.00 0.00 0.00 0.00 0.00 0.00 0.00 0.00 0.00 0.00 0.00 0.00 0.00 0.00 0.00 0.00 0.00 0.00 0.00 0.00 0.00 0.00 0.00 0.00 0.00 0.00 0.00 0.00 0.00 0.00 0.00 0.00 0.00 0.01 0.01 0.01 0.00 0.00 0.00 0.00 0.00 0.00 0.00 0.00 -0.00 0.00 0.00 0.00 0.00 0.00 0.00 0.00 0.00 0.00 0.00 0.00 0.00 0.00
0.00 0.00 0.00 0.00 0.00 0.00 0.00 0.00 0.00 0.00 0.00 0.00 0.00 0.00 0.00 0.00 0.00 0.00 0.00 0.00 0.00 0.00 0.00 0.00 0.00 0.00 0.00 0.00 0.00 0.00 0.00 0.00 0.00 0.00 0.00 0.00 0.00 0.00 0.00 0.00 0.00 0.00 0.00 0.00 0.00 0.00 0.01 0.00 0.00 0.00 0.00 0.00 0.00 0.00 0.00 -0.00 0.00 -0.00 -0.00 -0.00 -0.00 0.00 0.00 0.00 0.00 0.00 0.00 0.00 -0.00
-0.00 0.00 0.00 0.00 0.00 0.00 0.00 0.00 0.00 0.00 0.00 0.00 0.00 0.00 0.00 0.00 0.00 0.00 0.00 0.00 0.00 0.00 0.00 0.00 0.00 0.00 0.00 0.00 0.00 0.00 0.00 0.00 0.00 0.00 0.00 0.00 0.00 0.00 0.00 0.00 0.00 0.00 0.00 0.00 0.00 0.00 0.01 0.01 0.01 0.01 0.01 0.00 0.00 -0.00 -0.00 -0.00 -0.00 -0.00 -0.00 0.00 0.00 -0.00 -0.00 0.00 0.00 0.00 0.00 -0.00 -0.00
-0.00 0.00 0.00 0.00 0.00 0.00 0.00 0.00 0.00 0.00 0.00 0.00 0.00 0.00 0.00 0.00 0.00 0.00 0.00 0.00 0.00 0.00 0.00 0.00 0.00 0.00 0.00 0.00 0.00 0.00 0.00 0.00 0.00 0.00 0.00 0.00 0.00 0.00 0.00 0.00 0.00 0.00 0.00 0.00 0.00 0.00 0.01 0.01 0.02 0.02 0.01 0.00 0.00 -0.00 -0.00 -0.00 -0.00 -0.00 -0.00 0.00 0.00 -0.00 -0.00 -0.00 -0.00 -0.00 0.00 -0.00 0.00
-0.00 -0.00 -0.00 0.00 0.00 0.00 0.00 0.00 0.00 0.00 0.00 0.00 0.00 0.00 0.00 0.00 0.00 0.00 0.00 0.00 0.00 0.00 0.00 0.00 0.00 0.00 0.00 0.00 0.00 0.00 0.00 0.00 0.00 0.00 0.00 0.00 0.00 0.00 0.00 0.00 0.00 0.00 0.00 0.00 0.00 0.00 0.01 0.02 0.03 0.03 0.03 0.00 0.00 -0.00 -0.00 -0.00 -0.00 -0.00 -0.00 0.00 -0.00 -0.00 -0.00 0.00 0.00 0.00 -0.00 -0.00 0.00
-0.00 -0.00 -0.00 -0.00 0.00 0.00 0.00 0.00 0.00 0.00 0.00 0.00 0.00 0.00 0.00 0.00 0.00 0.00 0.00 0.00 0.00 0.00 0.00 0.00 0.00 0.00 0.00 0.00 0.00 0.00 0.00 0.00 0.00 0.00 0.00 0.00 0.00 0.00 0.00 0.00 0.00 0.00 0.00 0.00 0.00 0.00 0.00 0.01 0.03 0.03 0.04 0.01 0.01 0.00 0.00 -0.00 -0.00 -0.00 -0.00 -0.00 -0.00 -0.00 -0.00 -0.00 -0.00 -0.00 0.00 0.00 0.00
-0.00 -0.00 -0.00 -0.00 -0.00 -0.00 0.00 0.00 0.00 0.00 0.00 0.00 0.00 0.00 0.00 0.00 0.00 0.00 0.00 0.00 0.00 0.00 0.00 0.00 0.00 0.00 0.00 0.00 0.00 0.00 0.00 0.00 0.00 0.00 0.00 0.00 0.00 0.00 0.00 0.00 0.00 0.00 0.00 0.00 0.00 0.00 0.00 0.01 0.03 0.03 0.05 0.03 0.01 0.01 0.01 0.00 0.00 -0.00 -0.00 -0.00 0.00 0.00 0.00 0.00 0.00 0.00 0.00 -0.00 -0.00
-0.00 -0.00 -0.00 -0.00 -0.00 -0.00 -0.00 0.00 0.00 0.00 0.00 0.00 0.00 0.00 0.00 0.00 0.00 0.00 0.00 0.00 0.00 0.00 0.00 0.00 0.00 0.00 0.00 0.00 0.00 0.00 0.00 0.00 0.00 0.00 0.00 0.00 0.00 0.00 0.00 0.00 0.00 0.00 0.00 0.00 0.00 0.00 0.00 0.01 0.03 0.03 0.04 0.04 0.02 0.01 0.01 0.00 0.00 0.00 0.00 -0.00 0.00 0.00 0.00 0.00 0.00 0.00 0.00 0.00 -0.00
-0.00 -0.00 -0.00 -0.00 -0.00 -0.00 -0.00 0.00 0.00 0.00 0.00 0.00 0.00 0.00 0.00 0.00 0.00 0.00 0.00 0.00 0.00 0.00 0.00 0.00 0.00 0.00 0.00 0.00 0.00 0.00 0.00 0.00 0.00 0.00 0.00 0.00 0.00 0.00 0.00 0.00 0.00 0.00 0.00 0.00 0.01 0.01 0.01 0.01 0.03 0.03 0.04 0.06 0.04 0.02 0.02 0.00 0.01 0.00 0.00 -0.00 0.00 0.00 0.00 0.00 0.00 0.00 0.00 -0.00 0.00
0.00 -0.00 -0.00 -0.00 -0.00 -0.00 -0.00 0.00 0.00 0.00 0.00 0.00 0.00 0.00 0.00 0.00 0.00 0.00 0.00 0.00 0.00 0.00 0.00 0.00 0.00 0.00 0.00 0.00 0.00 0.00 0.00 0.00 0.00 0.00 0.00 0.00 0.00 0.00 0.00 0.00 0.00 0.00 0.00 0.00 0.01 0.01 0.01 0.01 0.02 0.02 0.03 0.07 0.04 0.02 0.02 0.00 0.00 0.00 0.00 0.00 0.01 0.01 0.01 0.00 0.00 0.00 0.00 0.00 -0.00